Regional Weather Roundup
Issued by NWS

Home | Current Version | Previous Version | Text Only | Print | Product List | Glossary On
Versions: 1 2 3 4 5 6 7 8 9 10 11 12 13 14 15 16 17 18 19 20 21 22 23 24 25 26 27 28 29 30 31 32 33 34 35 36 37 38 39 40 41 42 43 44 45 46 47 48 49 50
000
ASUS45 KCYS 032110
RWRWY

WYOMING REGIONAL WEATHER ROUNDUP
NATIONAL WEATHER SERVICE CHEYENNE WY
300 PM MDT THU SEP 03 2015

NOTE:  "FAIR" INDICATES FEW OR NO CLOUDS BELOW 12,000 FEET
WITH NO SIGNIFICANT WEATHER AND/OR OBSTRUCTIONS TO VISIBILITY.

WYZ001-032200-
YELLOWSTONE NATIONAL PARK

CITY           SKY/WX    TMP DP  RH WIND       PRES   REMARKS
LK YELLOWSTONE   N/A     68  36  30 VRB6G17   30.05F
W YELLOWSTONE  NOT AVBL

$$
WYZ002>013-054>058-071-098>099-032200-
NORTHERN WYOMING

CITY           SKY/WX    TMP DP  RH WIND       PRES   REMARKS
JACKSON        MOSUNNY   79  34  19 S20G31    29.94F
CODY           FAIR      73  43  33 N7        29.83F
GREYBULL       FAIR      82  39  21 SE6       29.76F
WORLAND        FAIR      85  43  22 CALM      29.78F
SHERIDAN       FAIR      86  40  19 VRB6      29.79F
BUFFALO        FAIR      91  38  15 SE12G18   29.84F
GILLETTE       FAIR      91  40  16 SE9       29.81F
HULETT         FAIR      86  41  20 CALM      29.85F
NEWCASTLE      FAIR      90  34  13 SE8       29.84F

$$
WYZ014>020-022>026-101>103-032200-
CENTRAL WYOMING

CITY           SKY/WX    TMP DP  RH WIND       PRES   REMARKS
BIG PINEY      FAIR      79  29  16 W14       30.02F
PINEDALE       FAIR      73  27  17 S7G22     30.03F
DUBOIS         MOCLDY    72  32  23 SW14G28   29.99F
LANDER         FAIR      81  29  15 W17G30    29.89S
RIVERTON       FAIR      83  35  18 S18G25    29.88F
CASPER         FAIR      86  35  16 S17       29.91F
DOUGLAS        FAIR      91  35  13 SW8       29.88F

$$
WYZ021-027>030-104>119-032200-
SOUTHERN WYOMING

CITY           SKY/WX    TMP DP  RH WIND       PRES   REMARKS
EVANSTON       FAIR      79  30  16 SW24G36   30.04F
KEMMERER       FAIR      77  27  15 SW20G25   30.04F
FORT BRIDGER   CLEAR     81  27  13 W20G26    30.06F
ROCK SPRINGS   FAIR      75  34  22 S16G24    30.03F
DIXON          TSTM      67  48  50 SE6G13    30.12R
RAWLINS        FAIR      78  34  20 SW15G26   30.05F
SARATOGA       FAIR      77  39  25 W15       30.09S
LARAMIE        LGT RAIN  62  49  62 S21G33    30.11R
CHEYENNE       LGT RAIN  75  48  38 S14G25    30.05F
TORRINGTON     FAIR      94  39  14 SE13      29.85F HX  90
PINE BLUFFS    MOCLDY    79  45  29 SE7       29.99F

$$


USA.gov is the U.S. government's official web portal to all federal, state and local government web resources and services.